Starlink 32792

operational
NORAD ID: 62504 Int'l Des: 2025-003 Owner: SPXS Country: US Constellation: starlink
LEOCIRCULAR

Über Starlink 32792

Beschreibung wird geladen...

Live-Position

3D-Globus wird geladen...

Nächste Überflüge

Höhenverlauf

Altitude vs Time

uPlot chart will show altitude changes over time

Zweizeiliger Elementsatz

1 62504U 25003T 26033.29689237 .00014074 00000-0 51960-3 0 9997
2 62504 42.9995 128.4215 0001773 287.2950 72.7707 15.27603188 61144
Epoch: 2. Feb. 2026 • Age: 27 hours

Aktueller Status

Höhe 485.2 km
Geschwindigkeit 7.63 km/s
Subsatellitenpunkt 35.95°N, 111.76°W
Startdatum 6. Jan. 2025
Alter 1 years
Typ internet

Technische Details

Klassifizierung Payload
Masse 730.00 kg
Trockenmasse 700.00 kg
Gesamtmasse 730.00 kg
Länge 0.30 m
Durchmesser 4.10 m
Spannweite 29.00 m
Form Box + pan
Hersteller SPXS
Bus-Typ Starlink V2M
Phasenstatus In Orbit
Besitzer/Staat SPXS/US

Große Konstellationen

Loading constellations...